FW6587 Weather Reports


Display with metric or nautical units.
time (UTC)temp
F
wind
direction
speed
MPH
gust
MPH
rain 1hr
in
rain 24hr
in
rain mn
in
humidity
%
barometer
mb
20260510184554 66 0 2.0 9.0 0.00 0.00 0.00 38 1033.6
20260510183057 65 0 1.0 9.0 0.00 0.00 0.00 44 1033.6
20260510181549 66 328 1.0 4.0 0.00 0.00 0.00 41 1033.7
20260510180104 64 297 1.0 9.0 0.00 0.00 0.00 43 1034.0
20260510174548 62 79 0.0 2.0 0.00 0.00 0.00 45 1034.2
20260510173050 62 0 0.0 4.0 0.00 0.00 0.00 45 1034.1
20260510171559 61 282 1.0 9.0 0.00 0.00 0.00 46 1034.1
20260510170050 60 50 0.0 3.0 0.00 0.00 0.00 52 1034.3
20260510164556 59 0 0.0 3.0 0.00 0.00 0.00 53 1034.3
20260510163113 61 0 0.0 4.0 0.00 0.00 0.00 53 1034.3
20260510161600 60 0 0.0 1.0 0.00 0.00 0.00 57 1034.4
20260510160059 58 120 3.0 7.0 0.00 0.00 0.00 60 1034.3
20260510154548 57 0 0.0 4.0 0.00 0.00 0.00 62 1034.3
20260510153056 56 99 1.0 5.0 0.00 0.00 0.00 63 1034.4
20260510151555 56 0 2.0 6.0 0.00 0.00 0.00 65 1034.1
20260510150103 55 127 1.0 5.0 0.00 0.00 0.00 67 1034.1
20260510144551 53 87 1.0 4.0 0.00 0.00 0.00 68 1034.1
20260510143106 53 0 0.0 8.0 0.00 0.00 0.00 70 1034.1
20260510141552 52 0 2.0 4.0 0.00 0.00 0.00 75 1034.4
20260510140049 51 115 2.0 4.0 0.00 0.00 0.00 78 1034.3
20260510134556 49 92 1.0 7.0 0.00 0.00 0.00 80 1034.4
20260510133051 49 0 0.0 2.0 0.00 0.00 0.00 80 1034.5
20260510131553 48 0 0.0 2.0 0.00 0.00 0.00 80 1034.6
20260510130049 48 0 0.0 2.0 0.00 0.00 0.00 79 1034.8
20260510124551 48 0 0.0 2.0 0.00 0.00 0.00 78 1034.8
20260510123052 48 48 1.0 3.0 0.00 0.00 0.00 77 1034.6
20260510121553 48 0 0.0 4.0 0.00 0.00 0.00 77 1034.6
20260510120053 48 0 0.0 0.0 0.00 0.00 0.00 76 1034.4
20260510114555 48 0 0.0 2.0 0.00 0.00 0.00 75 1034.2
20260510113054 48 84 0.0 2.0 0.00 0.00 0.00 74 1033.9
20260510111555 49 0 0.0 0.0 0.00 0.00 0.00 73 1033.9
20260510110048 49 0 0.0 0.0 0.00 0.00 0.00 73 1033.8
20260510104558 49 0 0.0 0.0 0.00 0.00 0.00 73 1033.7
20260510103059 49 0 0.0 0.0 0.00 0.00 0.00 73 1033.5
20260510101554 49 0 0.0 0.0 0.00 0.00 0.00 73 1033.5
20260510100052 49 0 0.0 0.0 0.00 0.00 0.00 73 1033.3
20260510094550 49 0 1.0 5.0 0.00 0.00 0.00 73 1033.4
20260510093103 49 0 0.0 3.0 0.00 0.00 0.00 74 1033.1
20260510091557 49 0 0.0 1.0 0.00 0.00 0.00 74 1033.0
20260510090110 49 0 0.0 0.0 0.00 0.00 0.00 73 1032.8
20260510084552 49 0 0.0 0.0 0.00 0.00 0.00 73 1032.7
20260510083054 49 0 0.0 0.0 0.00 0.00 0.00 72 1032.6
20260510081616 49 0 0.0 0.0 0.00 0.00 0.00 72 1032.4
20260510080053 49 0 0.0 0.0 0.00 0.00 0.00 73 1032.6
20260510074554 49 0 0.0 0.0 0.00 0.00 0.00 73 1032.9
20260510073103 49 0 0.0 0.0 0.00 0.00 0.00 73 1033.0
20260510071559 49 0 0.0 0.0 0.00 0.00 0.00 73 1033.2
20260510070050 49 0 0.0 0.0 0.00 0.00 0.00 73 1033.2
20260510064556 50 0 0.0 0.0 0.00 0.00 0.00 73 1033.2
20260510063052 50 0 0.0 0.0 0.00 0.00 0.00 73 1033.2
20260510061551 50 0 0.0 0.0 0.00 0.00 0.00 73 1033.3
20260510060055 50 0 0.0 0.0 0.00 0.00 0.00 72 1033.1
20260510054553 50 0 0.0 0.0 0.00 0.00 0.00 72 1033.2
20260510053110 50 0 0.0 0.0 0.00 0.00 0.00 72 1033.1
20260510051605 50 0 0.0 0.0 0.00 0.00 0.00 70 1033.1
20260510050100 50 0 0.0 0.0 0.00 0.00 0.00 69 1033.2
20260510044603 50 0 0.0 0.0 0.00 0.00 0.00 69 1033.4
20260510043101 50 0 0.0 0.0 0.00 0.00 0.00 68 1033.2
20260510041603 51 0 0.0 0.0 0.00 0.00 0.00 68 1033.4
20260510040101 51 0 0.0 7.0 0.00 0.00 0.00 67 1033.4
20260510034556 51 0 0.0 1.0 0.00 0.00 0.00 65 1033.1
20260510033107 51 0 1.0 6.0 0.00 0.00 0.00 65 1033.3
20260510031551 51 65 2.0 7.0 0.00 0.00 0.00 65 1033.0
20260510030107 51 301 1.0 8.0 0.00 0.00 0.00 65 1032.3
20260510024553 51 248 3.0 7.0 0.00 0.00 0.00 66 1031.2
20260510023053 52 226 0.0 12.0 0.00 0.00 0.00 66 1030.2
20260510021553 53 287 3.0 11.0 0.00 0.00 0.00 65 1029.6
20260510020056 54 319 3.0 11.0 0.00 0.00 0.00 62 1029.2
20260510014558 55 94 2.0 20.0 0.00 0.00 0.00 60 1029.0
20260510013049 56 40 3.0 14.0 0.00 0.00 0.00 57 1028.1
20260510011551 59 11 4.0 12.0 0.00 0.00 0.00 53 1027.0
20260510010052 63 343 3.0 15.0 0.00 0.00 0.00 46 1026.3
20260510004555 72 186 4.0 15.0 0.00 0.00 0.00 32 1024.9
20260510003100 75 53 0.0 3.0 0.00 0.00 0.00 21 1023.4
20260510001555 76 27 0.0 3.0 0.00 0.00 0.00 21 1023.1
20260510000054 75 0 1.0 6.0 0.00 0.00 0.00 21 1022.9
20260509234556 75 0 1.0 4.0 0.00 0.00 0.00 23 1022.8
20260509233100 75 0 0.0 0.0 0.00 0.00 0.00 22 1022.6
20260509231553 75 0 0.0 4.0 0.00 0.00 0.00 20 1022.6
20260509230052 74 0 0.0 5.0 0.00 0.00 0.00 22 1022.5
20260509224553 74 13 1.0 6.0 0.00 0.00 0.00 22 1022.4
20260509223057 76 26 1.0 7.0 0.00 0.00 0.00 20 1022.2
20260509221549 77 134 1.0 6.0 0.00 0.00 0.00 20 1022.2
20260509220059 73 140 1.0 6.0 0.00 0.00 0.00 23 1022.2
20260509214554 73 98 1.0 9.0 0.00 0.00 0.00 20 1022.0
20260509213055 74 125 1.0 4.0 0.00 0.00 0.00 22 1022.0
20260509211552 75 24 3.0 10.0 0.00 0.00 0.00 19 1022.2
20260509210056 74 338 0.0 8.0 0.00 0.00 0.00 23 1022.4
20260509204549 75 32 1.0 14.0 0.00 0.00 0.00 21 1022.2
20260509203058 75 0 1.0 7.0 0.00 0.00 0.00 23 1022.4
20260509201601 76 0 1.0 9.0 0.00 0.00 0.00 22 1022.4
20260509200107 77 107 2.0 8.0 0.00 0.00 0.00 20 1022.6
20260509194552 77 223 2.0 13.0 0.00 0.00 0.00 21 1022.8
20260509193110 77 319 3.0 9.0 0.00 0.00 0.00 21 1022.9
20260509191550 76 69 1.0 7.0 0.00 0.00 0.00 21 1023.2
20260509190051 76 9 2.0 7.0 0.00 0.00 0.00 22 1023.4